Skip Page Navigation
NASA JPL Caltech
NASA Logo - Jet Propulsion Laboratory + View the NASA Portal
+ Center for Near-Earth Object Studies
JPL Home Earth Solar System Stars & Galaxies Technology
JPL Solar System Dynamics
BODIES ORBITS EPHEMERIDES TOOLS PHYSICAL DATA DISCOVERY FAQ SITE MAP
JPL Small-Body Database Browser
Search: [ help ]  
431 Nephele (A897 YB)
Classification: Main-belt Asteroid          SPK-ID: 2000431
Ephemeris | Orbit Diagram | Orbital Elements | Mission Design | Physical Parameters | Discovery Circumstances | Close-Approach Data ]

[ hide orbit diagram ]

For accurate long-term ephemerides, please instead use our Horizons system.This orbit viewer was implemented using two-body methods, and hence should not be used for determining accurate long-term trajectories (over several years or decades) or planetary encounter circumstances.


[ revert to old Java-based viewer ]

Orbital Elements at Epoch 2459000.5 (2020-May-31.0) TDB
Reference: JPL 54 (heliocentric ecliptic J2000)
 Element Value Uncertainty (1-sigma)   Units 
e .1703340520509526 3.1316e-08  
a 3.14054161832254 1.167e-08 au
q 2.605600438839006 9.8618e-08 au
i 1.827746495130829 3.5798e-06 deg
node 117.1859029522852 0.00011739 deg
peri 217.0537729759306 0.00011791 deg
M 117.6692894168832 1.1021e-05 deg
tp 2458336.044521635461
(2018-Aug-05.54452164)
6.2387e-05 TDB
period 2032.849636439742
5.57
1.1331e-05
3.102e-08
d
yr
n .1770913074665427 9.871e-10 deg/d
Q 3.675482797806075 1.3658e-08 au
  Orbit Determination Parameters
   # obs. used (total)      3254  
   data-arc span      42932 days (117.54 yr)  
   first obs. used      1902-10-07  
   last obs. used      2020-04-22  
   planetary ephem.      DE431  
   SB-pert. ephem.      SB431-N16  
   condition code      0  
   norm. resid. RMS      .44518  
   source      ORB  
   producer      Otto Matic  
   solution date      2020-May-20 01:05:23  

Additional Information
 Earth MOID = 1.59589 au 
 Jupiter MOID = 1.69896 au 
 T_jup = 3.187 
[ show covariance matrix ]

Ephemeris | Orbit Diagram | Orbital Elements | Mission Design | Physical Parameters | Discovery Circumstances | Close-Approach Data ]

Physical Parameter Table
Parameter Symbol Value Units Sigma Reference Notes
absolute magnitude H 8.9   n/a MPO502157 IRAS observations used: 20
diameter diameter 101.900 km 0.988 urn:nasa:pds:neowise_diameters_albedos::2.0[mainbelt] (http://adsabs.harvard.edu/abs/2012ApJ...759L...8M)  
rotation period rot_per 13.530 h n/a LCDB (Rev. 2019-August); Warner et al., 2009 Published Reference List:
[Behrend, R. (2002) Observatoire de Geneve web site, http://obswww.unige.ch/~behrend/page_cou.html]
[Behrend, R. (2004) Observatoire de Geneve web site, http://obswww.unige.ch/~behrend/page_cou.html]
[Behrend, R. (2005) Observatoire de Geneve web site, http://obswww.unige.ch/~behrend/page_cou.html]
[Pilcher, F. (2017) Minor Planet Bull. 44, 294-297.]
[Carreno, A.; Arce, E.; Fornas, G.; Mas, V. (2019) Minor Planet Bull. 46, 200-203.]
geometric albedo albedo 0.055   0.005 urn:nasa:pds:neowise_diameters_albedos::2.0[mainbelt] (http://adsabs.harvard.edu/abs/2012ApJ...759L...8M)  
B-V BV 0.643   0.020 EAR-A-5-DDR-UBV-MEAN-VALUES-V1.2 #obs=1; phase=5.36 deg.
U-B UB 0.334   0.029 EAR-A-5-DDR-UBV-MEAN-VALUES-V1.2 #obs=1; phase=5.36 deg.
Tholen spectral type spec_T B   n/a EAR-A-5-DDR-TAXONOMY-V4.0 used 7 color indices; used ground-based radiometric albedo
SMASSII spectral type spec_B B   n/a EAR-A-5-DDR-TAXONOMY-V4.0 based on a high-resolution spectrum by Xu et al. (1995) or Bus and Binzel (2002)

431 Nephele (A897 YB)          Discovered 1897-Dec-18 by Charlois, A. at Nice
Reference: DISCOVERY.DBLast Updated: 2003-08-29

[ show close-approach data ]
Alternate Designations
 A897 YB = 1933 KC = 1949 YS = 1955 DU = A906 HC 
Ephemeris | Orbit Diagram | Orbital Elements | Mission Design | Physical Parameters | Discovery Circumstances | Close-Approach Data ]
ABOUT SSD CREDITS/AWARDS PRIVACY/COPYRIGHT GLOSSARY LINKS
FirstGov 2020-Jul-02 16:16 UT
(server date/time)  
NASA Home Page
Site Manager:   Ryan S. Park
Webmaster  Alan B. Chamberlin